AMX27LB MMAA-MMPR

Flight info

Callsign AMX27LB
Flight time 1h 0m
Altitude 32000
Route AGLON1B AGLON UT145 UPN UJ3 GDL UT124 NOTUP NOTUP1B
Aircraft B38M/M-SDE1FGHILORVWXY/HB1

Departure

Time 2026-05-08 01:20
Airport General Juan N. Álvarez International Airport (MMAA)

Arrival

Time 2026-05-08 02:21
Airport Puerto Vallarta International Airport (MMPR)
Time Latitude Longitude Altitude Speed Heading
2026-05-08 01:13 16.76038 -99.75561 22 ft 1 kts 109°
2026-05-08 01:14 16.76038 -99.75563 22 ft 0 kts 109°
2026-05-08 01:15 16.76035 -99.75553 20 ft 4 kts 109°
2026-05-08 01:16 16.76017 -99.75499 22 ft 12 kts 109°
2026-05-08 01:16 16.75963 -99.75407 20 ft 17 kts 142°
2026-05-08 01:16 16.75881 -99.75301 21 ft 22 kts 106°
2026-05-08 01:16 16.75828 -99.75119 23 ft 30 kts 108°
2026-05-08 01:17 16.75756 -99.74892 20 ft 35 kts 108°
2026-05-08 01:17 16.75680 -99.74651 19 ft 35 kts 108°
2026-05-08 01:17 16.75605 -99.74409 19 ft 35 kts 108°
2026-05-08 01:17 16.75529 -99.74168 20 ft 35 kts 108°
2026-05-08 01:18 16.75454 -99.73927 21 ft 35 kts 108°
2026-05-08 01:18 16.75379 -99.73686 19 ft 35 kts 108°
2026-05-08 01:18 16.75304 -99.73447 19 ft 35 kts 108°
2026-05-08 01:18 16.75179 -99.73341 20 ft 23 kts 196°
2026-05-08 01:19 16.75097 -99.73414 21 ft 12 kts 276°
2026-05-08 01:19 16.75119 -99.73491 19 ft 13 kts 288°
2026-05-08 01:19 16.75198 -99.73740 22 ft 71 kts 288°
2026-05-08 01:19 16.75422 -99.74460 22 ft 138 kts 288°
2026-05-08 01:20 16.75784 -99.75605 85 ft 188 kts 289°
2026-05-08 01:20 16.76184 -99.76921 878 ft 184 kts 284°
2026-05-08 01:20 16.76588 -99.78225 1669 ft 203 kts 288°
2026-05-08 01:20 16.77044 -99.79579 2721 ft 191 kts 286°
2026-05-08 01:21 16.77476 -99.80912 3497 ft 200 kts 287°
2026-05-08 01:21 16.77925 -99.82300 4352 ft 199 kts 287°
2026-05-08 01:21 16.78360 -99.83682 5105 ft 205 kts 288°
2026-05-08 01:21 16.78835 -99.85089 5322 ft 206 kts 288°
2026-05-08 01:22 16.79290 -99.86469 5924 ft 202 kts 289°
2026-05-08 01:22 16.79956 -99.87778 6440 ft 212 kts 312°
2026-05-08 01:22 16.81253 -99.88583 6925 ft 225 kts 346°
2026-05-08 01:22 16.82770 -99.88907 7679 ft 223 kts 349°
2026-05-08 01:23 16.84306 -99.89234 8309 ft 228 kts 349°
2026-05-08 01:23 16.85857 -99.89591 8970 ft 231 kts 349°
2026-05-08 01:23 16.87502 -99.90011 9168 ft 255 kts 347°
2026-05-08 01:23 16.89279 -99.90500 9517 ft 273 kts 346°
2026-05-08 01:24 16.91162 -99.91041 9992 ft 286 kts 346°
2026-05-08 01:24 16.92444 -99.91426 10348 ft 292 kts 345°
2026-05-08 01:24 16.94433 -99.92008 10787 ft 304 kts 346°
2026-05-08 01:24 16.96404 -99.92969 11020 ft 324 kts 324°
2026-05-08 01:25 16.98823 -99.94998 11312 ft 349 kts 322°
2026-05-08 01:25 17.00127 -99.96095 11418 ft 362 kts 322°
2026-05-08 01:25 17.02130 -99.97792 11532 ft 381 kts 321°
2026-05-08 01:25 17.04231 -99.99580 11671 ft 396 kts 321°
2026-05-08 01:26 17.06397 -100.01429 11982 ft 405 kts 321°
2026-05-08 01:26 17.08556 -100.03272 12520 ft 407 kts 322°
2026-05-08 01:26 17.10761 -100.05156 12939 ft 412 kts 322°
2026-05-08 01:26 17.12995 -100.07064 13425 ft 415 kts 322°
2026-05-08 01:27 17.15240 -100.08984 13847 ft 418 kts 322°
2026-05-08 01:27 17.17486 -100.10905 14355 ft 417 kts 321°
2026-05-08 01:27 17.19721 -100.12818 14691 ft 422 kts 321°
2026-05-08 01:27 17.21998 -100.14767 15113 ft 424 kts 321°
2026-05-08 01:28 17.24290 -100.16729 15480 ft 427 kts 321°
2026-05-08 01:28 17.26600 -100.18707 15830 ft 431 kts 321°
2026-05-08 01:28 17.28928 -100.20702 16202 ft 434 kts 321°
2026-05-08 01:28 17.31281 -100.22718 16458 ft 440 kts 321°
2026-05-08 01:29 17.33653 -100.24752 16834 ft 441 kts 321°
2026-05-08 01:29 17.36039 -100.26798 17174 ft 444 kts 320°
2026-05-08 01:29 17.38434 -100.28852 17517 ft 447 kts 320°
2026-05-08 01:29 17.40847 -100.30923 17833 ft 450 kts 320°
2026-05-08 01:30 17.43276 -100.33009 18141 ft 453 kts 320°
2026-05-08 01:30 17.45724 -100.35112 18427 ft 456 kts 320°
2026-05-08 01:30 17.48152 -100.37199 18676 ft 457 kts 320°
2026-05-08 01:30 17.50599 -100.39301 19128 ft 455 kts 320°
2026-05-08 01:31 17.53045 -100.41404 19363 ft 457 kts 320°
2026-05-08 01:31 17.55511 -100.43527 19644 ft 459 kts 320°
2026-05-08 01:31 17.57977 -100.45649 19927 ft 460 kts 320°
2026-05-08 01:31 17.60458 -100.47785 20173 ft 461 kts 320°
2026-05-08 01:32 17.62943 -100.49925 20424 ft 464 kts 320°
2026-05-08 01:32 17.65440 -100.52077 20745 ft 464 kts 320°
2026-05-08 01:32 17.67942 -100.54234 20950 ft 466 kts 320°
2026-05-08 01:32 17.70447 -100.56394 21151 ft 467 kts 320°
2026-05-08 01:33 17.72959 -100.58560 21391 ft 468 kts 320°
2026-05-08 01:33 17.75481 -100.60735 21576 ft 469 kts 320°
2026-05-08 01:33 17.78008 -100.62916 21786 ft 470 kts 320°
2026-05-08 01:33 17.80510 -100.65075 21988 ft 472 kts 320°
2026-05-08 01:34 17.83043 -100.67263 22225 ft 472 kts 320°
2026-05-08 01:34 17.85571 -100.69447 22437 ft 474 kts 320°
2026-05-08 01:34 17.88120 -100.71648 22610 ft 475 kts 320°
2026-05-08 01:34 17.90674 -100.73857 22822 ft 477 kts 320°
2026-05-08 01:35 17.93241 -100.76076 23012 ft 478 kts 319°
2026-05-08 01:35 17.95813 -100.78300 23228 ft 479 kts 319°
2026-05-08 01:35 17.98378 -100.80516 23422 ft 480 kts 319°
2026-05-08 01:35 18.00956 -100.82747 23584 ft 481 kts 319°
2026-05-08 01:36 18.03528 -100.84973 23763 ft 482 kts 320°
2026-05-08 01:36 18.06129 -100.87225 23930 ft 483 kts 320°
2026-05-08 01:36 18.08715 -100.89465 24114 ft 483 kts 319°
2026-05-08 01:36 18.11233 -100.91647 24260 ft 485 kts 319°
2026-05-08 01:37 18.13800 -100.93875 24364 ft 486 kts 319°
2026-05-08 01:37 18.16395 -100.96127 24483 ft 487 kts 319°
2026-05-08 01:37 18.18967 -100.98361 24644 ft 488 kts 319°
2026-05-08 01:37 18.21583 -101.00634 24792 ft 489 kts 319°
2026-05-08 01:38 18.24170 -101.02882 24971 ft 490 kts 319°
2026-05-08 01:38 18.26803 -101.05171 25077 ft 490 kts 319°
2026-05-08 01:38 18.29435 -101.07461 25224 ft 491 kts 319°
2026-05-08 01:38 18.32081 -101.09763 25373 ft 492 kts 319°
2026-05-08 01:39 18.34687 -101.12031 25516 ft 493 kts 319°
2026-05-08 01:39 18.37328 -101.14331 25658 ft 493 kts 319°
2026-05-08 01:39 18.39967 -101.16631 25752 ft 494 kts 319°
2026-05-08 01:39 18.42614 -101.18937 25879 ft 495 kts 319°
2026-05-08 01:40 18.45278 -101.21261 26006 ft 497 kts 319°
2026-05-08 01:40 18.47946 -101.23588 26087 ft 500 kts 319°
2026-05-08 01:40 18.50627 -101.25927 26232 ft 500 kts 319°
2026-05-08 01:40 18.53307 -101.28266 26385 ft 500 kts 319°
2026-05-08 01:41 18.55984 -101.30605 26542 ft 501 kts 319°
2026-05-08 01:41 18.58670 -101.32952 26668 ft 503 kts 319°
2026-05-08 01:41 18.61359 -101.35302 26832 ft 503 kts 319°
2026-05-08 01:41 18.64020 -101.37628 26987 ft 503 kts 319°
2026-05-08 01:42 18.66656 -101.39934 27078 ft 505 kts 318°
2026-05-08 01:42 18.69374 -101.42312 27204 ft 506 kts 319°
2026-05-08 01:42 18.72077 -101.44678 27419 ft 504 kts 319°
2026-05-08 01:42 18.74762 -101.47032 27667 ft 503 kts 319°
2026-05-08 01:43 18.77442 -101.49379 27879 ft 503 kts 317°
2026-05-08 01:43 18.80132 -101.51738 28035 ft 503 kts 317°
2026-05-08 01:43 18.82820 -101.54094 28256 ft 502 kts 318°
2026-05-08 01:43 18.85475 -101.56424 28483 ft 501 kts 317°
2026-05-08 01:44 18.88121 -101.58746 28689 ft 501 kts 318°
2026-05-08 01:44 18.90796 -101.61095 28949 ft 500 kts 318°
2026-05-08 01:44 18.93459 -101.63435 29188 ft 499 kts 318°
2026-05-08 01:44 18.96124 -101.65777 29426 ft 498 kts 317°
2026-05-08 01:45 18.98783 -101.68115 29659 ft 497 kts 318°
2026-05-08 01:45 19.01442 -101.70454 29894 ft 496 kts 317°
2026-05-08 01:45 19.04095 -101.72788 30122 ft 495 kts 317°
2026-05-08 01:45 19.06744 -101.75121 30326 ft 495 kts 317°
2026-05-08 01:46 19.09389 -101.77451 30536 ft 494 kts 317°
2026-05-08 01:46 19.12023 -101.79771 30748 ft 492 kts 317°
2026-05-08 01:46 19.14615 -101.82056 31025 ft 491 kts 317°
2026-05-08 01:46 19.17229 -101.84362 31264 ft 491 kts 317°
2026-05-08 01:47 19.19853 -101.86677 31517 ft 490 kts 317°
2026-05-08 01:47 19.22445 -101.88964 31767 ft 489 kts 317°
2026-05-08 01:47 19.25033 -101.91250 31981 ft 488 kts 317°
2026-05-08 01:48 19.30215 -101.95828 32093 ft 486 kts 317°
2026-05-08 01:48 19.32788 -101.98103 32119 ft 485 kts 317°
2026-05-08 01:48 19.37965 -102.02682 32124 ft 486 kts 317°
2026-05-08 01:49 19.42755 -102.07663 32124 ft 481 kts 310°
2026-05-08 01:49 19.47342 -102.12770 32092 ft 481 kts 310°
2026-05-08 01:50 19.51893 -102.17850 32038 ft 481 kts 310°
2026-05-08 01:50 19.54190 -102.20417 31872 ft 480 kts 310°
2026-05-08 01:50 19.56485 -102.22981 31874 ft 480 kts 310°
2026-05-08 01:51 19.61078 -102.28118 31871 ft 480 kts 310°
2026-05-08 01:51 19.65684 -102.33274 31855 ft 480 kts 310°
2026-05-08 01:52 19.70281 -102.38425 31842 ft 480 kts 309°
2026-05-08 01:52 19.74844 -102.43541 31838 ft 479 kts 309°
2026-05-08 01:53 19.79403 -102.48658 31812 ft 478 kts 309°
2026-05-08 01:53 19.83962 -102.53780 31805 ft 478 kts 309°
2026-05-08 01:54 19.88533 -102.58919 31805 ft 479 kts 309°
2026-05-08 01:54 19.93108 -102.64068 31795 ft 478 kts 309°
2026-05-08 01:55 19.97630 -102.69163 31793 ft 478 kts 309°
2026-05-08 01:55 20.02184 -102.74297 31770 ft 478 kts 309°
2026-05-08 01:56 20.06735 -102.79433 31777 ft 477 kts 309°
2026-05-08 01:56 20.11288 -102.84576 31777 ft 477 kts 309°
2026-05-08 01:57 20.15838 -102.89720 31751 ft 477 kts 309°
2026-05-08 01:57 20.20352 -102.94827 31766 ft 477 kts 309°
2026-05-08 01:58 20.24892 -102.99970 31770 ft 477 kts 309°
2026-05-08 01:58 20.29416 -103.05098 31744 ft 477 kts 309°
2026-05-08 01:59 20.33964 -103.10259 31762 ft 478 kts 309°
2026-05-08 01:59 20.38491 -103.15400 31745 ft 479 kts 309°
2026-05-08 02:00 20.40774 -103.17996 31972 ft 479 kts 309°
2026-05-08 02:00 20.43058 -103.20592 32017 ft 480 kts 309°
2026-05-08 02:00 20.47597 -103.25756 32074 ft 480 kts 309°
2026-05-08 02:01 20.51931 -103.31109 32050 ft 472 kts 296°
2026-05-08 02:01 20.54507 -103.37470 32094 ft 468 kts 288°
2026-05-08 02:02 20.56861 -103.43934 32061 ft 467 kts 287°
2026-05-08 02:02 20.58012 -103.47170 31945 ft 467 kts 287°
2026-05-08 02:02 20.59142 -103.50361 31711 ft 466 kts 287°
2026-05-08 02:03 20.60278 -103.53573 31462 ft 467 kts 287°
2026-05-08 02:03 20.61425 -103.56823 31180 ft 466 kts 286°
2026-05-08 02:03 20.62568 -103.60061 30915 ft 468 kts 286°
2026-05-08 02:03 20.63718 -103.63323 30661 ft 469 kts 286°
2026-05-08 02:04 20.64870 -103.66591 30426 ft 470 kts 286°
2026-05-08 02:04 20.66017 -103.69848 29532 ft 472 kts 286°
2026-05-08 02:04 20.67190 -103.73179 28200 ft 484 kts 287°
2026-05-08 02:04 20.68370 -103.76533 27366 ft 484 kts 287°
2026-05-08 02:05 20.69549 -103.79887 26657 ft 482 kts 287°
2026-05-08 02:05 20.70732 -103.83252 25751 ft 485 kts 287°
2026-05-08 02:05 20.71911 -103.86611 25134 ft 482 kts 287°
2026-05-08 02:05 20.73069 -103.89910 24523 ft 478 kts 287°
2026-05-08 02:06 20.74229 -103.93219 23884 ft 476 kts 288°
2026-05-08 02:06 20.75390 -103.96531 23203 ft 474 kts 288°
2026-05-08 02:06 20.76536 -103.99807 22586 ft 469 kts 288°
2026-05-08 02:06 20.77679 -104.03071 21861 ft 467 kts 288°
2026-05-08 02:07 20.78807 -104.06297 21296 ft 461 kts 288°
2026-05-08 02:07 20.79929 -104.09508 20620 ft 460 kts 288°
2026-05-08 02:07 20.81040 -104.12690 20083 ft 454 kts 288°
2026-05-08 02:07 20.82145 -104.15855 19400 ft 454 kts 288°
2026-05-08 02:08 20.83242 -104.19000 18895 ft 449 kts 288°
2026-05-08 02:08 20.84323 -104.22149 18165 ft 451 kts 285°
2026-05-08 02:08 20.84845 -104.25397 17737 ft 437 kts 268°
2026-05-08 02:08 20.84628 -104.28610 16954 ft 435 kts 260°
2026-05-08 02:09 20.84199 -104.31805 16400 ft 431 kts 259°
2026-05-08 02:09 20.83737 -104.34942 16007 ft 423 kts 258°
2026-05-08 02:09 20.83258 -104.38049 15144 ft 428 kts 258°
2026-05-08 02:09 20.82763 -104.41167 14709 ft 422 kts 258°
2026-05-08 02:10 20.82310 -104.44247 14331 ft 417 kts 263°
2026-05-08 02:10 20.82441 -104.47333 13990 ft 413 kts 273°
2026-05-08 02:10 20.82737 -104.50358 13786 ft 403 kts 273°
2026-05-08 02:10 20.83040 -104.53300 13573 ft 394 kts 274°
2026-05-08 02:11 20.83345 -104.56175 13377 ft 380 kts 274°
2026-05-08 02:11 20.83640 -104.58908 13194 ft 361 kts 274°
2026-05-08 02:11 20.83921 -104.61494 13138 ft 339 kts 274°
2026-05-08 02:11 20.84188 -104.63958 12725 ft 339 kts 274°
2026-05-08 02:12 20.84462 -104.66488 12110 ft 345 kts 274°
2026-05-08 02:12 20.84738 -104.69047 11570 ft 348 kts 275°
2026-05-08 02:12 20.85017 -104.71623 11105 ft 349 kts 275°
2026-05-08 02:12 20.85297 -104.74210 10629 ft 350 kts 275°
2026-05-08 02:13 20.85486 -104.75960 10297 ft 351 kts 276°
2026-05-08 02:13 20.85763 -104.78530 9809 ft 353 kts 276°
2026-05-08 02:13 20.86044 -104.81145 9243 ft 355 kts 277°
2026-05-08 02:13 20.86325 -104.83761 8641 ft 350 kts 277°
2026-05-08 02:14 20.86601 -104.86330 8063 ft 343 kts 277°
2026-05-08 02:14 20.86867 -104.88834 7562 ft 334 kts 277°
2026-05-08 02:14 20.87127 -104.91275 7031 ft 327 kts 278°
2026-05-08 02:14 20.87383 -104.93665 6557 ft 320 kts 278°
2026-05-08 02:15 20.87635 -104.96020 6076 ft 316 kts 278°
2026-05-08 02:15 20.87880 -104.98329 5645 ft 308 kts 279°
2026-05-08 02:15 20.88107 -105.00570 5303 ft 298 kts 274°
2026-05-08 02:15 20.87734 -105.02707 4933 ft 293 kts 243°
2026-05-08 02:16 20.86484 -105.04338 4694 ft 282 kts 224°
2026-05-08 02:16 20.85144 -105.05801 4458 ft 268 kts 227°
2026-05-08 02:16 20.83877 -105.07232 4090 ft 259 kts 227°
2026-05-08 02:16 20.82667 -105.08608 3801 ft 248 kts 227°
2026-05-08 02:17 20.81520 -105.09918 3524 ft 236 kts 228°
2026-05-08 02:17 20.80422 -105.11173 3200 ft 225 kts 229°
2026-05-08 02:17 20.79384 -105.12364 2871 ft 213 kts 229°
2026-05-08 02:17 20.78422 -105.13470 2598 ft 198 kts 227°
2026-05-08 02:18 20.77506 -105.14521 2326 ft 190 kts 227°
2026-05-08 02:18 20.76607 -105.15553 2110 ft 191 kts 227°
2026-05-08 02:18 20.75698 -105.16585 1914 ft 189 kts 226°
2026-05-08 02:18 20.74812 -105.17577 1664 ft 182 kts 226°
2026-05-08 02:19 20.73938 -105.18594 1386 ft 188 kts 228°
2026-05-08 02:19 20.73057 -105.19638 1145 ft 191 kts 227°
2026-05-08 02:19 20.72152 -105.20673 859 ft 188 kts 226°
2026-05-08 02:19 20.71272 -105.21665 642 ft 180 kts 227°
2026-05-08 02:20 20.70431 -105.22626 391 ft 173 kts 226°
2026-05-08 02:20 20.69651 -105.23521 174 ft 157 kts 226°
2026-05-08 02:20 20.68953 -105.24332 66 ft 139 kts 225°
2026-05-08 02:20 20.68365 -105.25004 30 ft 98 kts 227°
2026-05-08 02:21 20.68042 -105.25378 32 ft 48 kts 227°
2026-05-08 02:21 20.67805 -105.25644 32 ft 50 kts 226°
2026-05-08 02:21 20.67644 -105.25830 31 ft 49 kts 227°